Weather observations for the past three days for
Decatur, Pryor Field
Imperial (Metric)
Date Time (cdt) Wind (mph) Vis. (mi.) Weather Sky Cond. Temperature (ºF) Relative Humidity Wind Chill (°F) Heat Index (°F) Pressure Precipitation (in)
Air Dwpt 6 hour altimeter (in) sea level (mb) 1 hr 3 hr 6 hr
Max. Min.
12 17:53 W 8 10.00 Fair CLR 95 61 32% 95 30.06 1017.1
12 16:53 W 9 10.00 Fair CLR 95 62.1 34% 96 30.06 1017.2
12 15:53 N 9 G 24 10.00 Partly Cloudy SCT070 96.1 63 34% 98 30.07 1017.4
12 14:53 S 6 10.00 A Few Clouds FEW070 91.9 62.1 37% 93 30.08 1017.8
12 13:53 Vrbl 3 10.00 Mostly Cloudy SCT070 BKN095 93 62.1 36% 94 30.1 1018.6
12 12:53 W 6 10.00 Mostly Cloudy SCT070 BKN090 BKN100 91.9 62.1 93.9 72 37% 93 30.12 1019.1
12 11:53 W 5 10.00 Mostly Cloudy BKN065 91.9 61 36% 92 30.13 1019.7
12 09:53 Vrbl 3 10.00 Fair CLR 87.1 66.9 51% 90 30.13 1019.6
12 08:53 NE 3 10.00 Fair CLR 81 66.9 62% 83 30.13 1019.4
12 07:53 Calm 10.00 Fair CLR 78.1 66 67% 80 30.12 1019.0
12 06:53 Calm 10.00 Fair CLR 72 66 72 66.9 82% 30.1 1018.5
12 05:53 Calm 10.00 Fair CLR 68 64 87% 30.08 1017.9
12 04:53 Calm 10.00 Fair CLR 68 64 87% 30.07 1017.5
12 03:53 Calm 10.00 Fair CLR 70 64.9 84% 30.05 1016.9
12 02:53 Calm 10.00 Fair CLR 72 64.9 79% 30.05 1016.7
12 01:53 Calm 10.00 Fair CLR 71.1 64.9 81% 30.04 1016.5
12 00:53 Calm 10.00 Fair CLR 72 66 91 72 82% 30.05 1016.9
11 23:53 Calm 10.00 Fair CLR 73 66 79% 30.06 1017.1
11 22:53 Calm 10.00 Fair CLR 75 64.9 71% 77 30.06 1017.0
11 20:53 Calm 10.00 Fair CLR 78.1 64.9 64% 80 30.03 1016.1
11 19:53 S 3 10.00 Fair CLR 84 64.9 53% 86 30.02 1015.7
11 18:53 E 5 10.00 Fair CLR 91 61 93 89.1 37% 91 30.02 1015.6
11 17:53 Calm 10.00 Fair CLR 91 60.1 35% 91 30.01 1015.5
11 16:53 Vrbl 3 10.00 Fair CLR 93 61 34% 93 30.02 1015.7
11 14:53 NE 9 10.00 Mostly Cloudy BKN070 BKN090 91.9 61 36% 92 30.04 1016.3
11 13:53 Calm 10.00 Fair CLR 91.9 60.1 34% 92 30.05 1016.8
11 12:53 Vrbl 6 10.00 A Few Clouds FEW060 91 61 91.9 71.1 37% 91 30.06 1017.2
11 11:53 Vrbl 5 10.00 Fair CLR 91 64 41% 93 30.08 1017.7
11 10:53 W 7 10.00 Fair CLR 87.1 63 45% 88 30.08 1017.8
11 09:53 E 7 10.00 Fair CLR 84.9 64.9 51% 87 30.08 1017.7
11 08:53 Vrbl 3 10.00 Fair CLR 82 66 58% 84 30.09 1018.1
11 07:53 N 3 10.00 Fair CLR 77 66 69% 79 30.08 1017.8
11 06:53 Calm 10.00 Fair CLR 71.1 66 72 66 84% 30.07 1017.4
11 05:53 Calm 10.00 Fair CLR 66 64 93% 30.05 1017.0
11 04:53 Calm 10.00 Fair CLR 66 63 90% 30.04 1016.7
11 03:53 SE 3 10.00 Mostly Cloudy BKN060 68 64.9 90% 30.03 1016.2
11 02:53 Calm 10.00 Fair CLR 71.1 64 79% 30.03 1016.0
11 01:53 Calm 10.00 Fair CLR 69.1 64 84% 30.03 1016.0
11 00:53 Calm 10.00 Partly Cloudy SCT060 72 64.9 88 71.1 79% 30.03 1016.2
10 23:53 Calm 10.00 Mostly Cloudy BKN060 72 64.9 79% 30.04 1016.3
10 22:53 Calm 10.00 Mostly Cloudy BKN065 73 64 74% 30.03 1016.1
10 21:53 Calm 10.00 Fair CLR 73.9 64 71% 30.01 1015.5
10 20:53 Calm 10.00 Fair CLR 75.9 64 67% 78 30 1015.3
10 19:53 Calm 10.00 Fair CLR 81 64.9 58% 83 30 1015.0
10 18:53 Calm 10.00 Fair CLR 88 62.1 91.9 84.9 42% 88 29.99 1014.8
10 17:53 N 7 10.00 Partly Cloudy SCT060 90 62.1 39% 90 29.99 1014.8
10 16:53 Vrbl 3 10.00 Partly Cloudy SCT060 90 62.1 39% 90 29.99 1014.8
10 15:53 NW 9 10.00 A Few Clouds FEW060 87.1 61 42% 87 30 1015.1
10 14:53 N 13 G 20 10.00 A Few Clouds FEW050 89.1 62.1 41% 89 30 1015.2
10 13:53 Vrbl 3 G 18 10.00 Partly Cloudy SCT049 88 62.1 42% 88 30.02 1015.7
10 12:53 Vrbl 6 10.00 Partly Cloudy SCT043 86 64.9 87.1 72 49% 88 30.02 1015.8
10 11:53 N 12 G 17 10.00 A Few Clouds FEW036 84.9 64.9 51% 87 30.04 1016.4
10 10:53 N 12 10.00 Partly Cloudy SCT033 81 64 57% 83 30.04 1016.4
10 09:53 NW 5 10.00 Mostly Cloudy BKN029 79 64.9 62% 81 30.04 1016.4
10 08:53 Vrbl 6 10.00 Overcast OVC027 75 64 69% 77 30.03 1016.1
10 07:53 W 5 10.00 Mostly Cloudy BKN025 BKN031 73 66 79% 30.02 1015.6
10 06:53 NW 10 10.00 Overcast BKN016 OVC024 73 64.9 75 72 76% 30 1015.2
10 05:53 NW 6 10.00 Overcast BKN020 OVC026 72 64 76% 30 1014.9
10 04:53 W 7 10.00 Overcast BKN017 OVC023 72 66 82% 29.98 1014.4
10 03:53 NW 12 10.00 Mostly Cloudy FEW017 BKN024 72 64.9 79% 29.97 1014.0
10 02:53 W 14 10.00 Partly Cloudy SCT018 72 64.9 79% 29.95 1013.3
10 01:53 W 14 10.00 Fair CLR 73 64.9 76% 29.94 1013.0
10 00:53 W 15 G 25 10.00 A Few Clouds FEW027 75 64.9 86 75 71% 77 29.94 1013.1 0.01
09 23:53 SW 13 G 23 10.00 Fair CLR 75.9 64.9 69% 78 29.94 1013.0
09 22:53 W 17 G 25 10.00 Fair CLR 77 64.9 66% 79 29.92 1012.5
09 21:53 W 18 G 32 10.00 Fair CLR 78.1 66 67% 80 29.9 1011.8 0.01
09 20:53 SW 14 G 35 10.00 Mostly Cloudy FEW032 BKN048 82.9 70 65% 87 29.86 1010.4
09 19:53 S 17 G 25 8.00 Light Rain FEW032 SCT050 OVC065 84 77 80% 94 29.83 1009.2 0.01
09 18:53 S 12 10.00 Mostly Cloudy FEW026 FEW036 BKN095 84.9 75 97 84.9 72% 93 29.82 1009.0
Date Time (cdt) Wind (mph) Vis. (mi.) Weather Sky Cond. Air Dwpt Max. Min. Relative Humidity Wind Chill (°F) Heat Index (°F) altimeter (in) sea level (mb) 1 hr 3 hr 6 hr
6 hour
Temperature (ºF) Pressure Precipitation (in)